STARLINK-34978

Last updated on Tue Sep 16 2025 00:02:07 GMT+0000 (Coordinated Universal Time)

1 65435U 25194B 25258.02345171 -.00352563 00000+0 -21078-2 0 9994 2 65435 97.5977 109.3460 0001520 52.7575 307.3830 15.78698474 3096
UTC large
Height (km)
Speed (km/s)
/
Latitude / Longitude
Inclination (degrees)
Orbital Period (minutes)
Azimuth
Elevation
Range (km)
Doppler Factor

Next 0 passes for location: London (51.5072 / 0.1276)

Sorry there are no passes over London.